Location: Brabourne
(51.1333°N, 1.0000°E)
Time: 11:51:52
(UTC+00:00)

SeaSat 1 - Visible Passes

Search period start: 28 October 2021 00:00
Search period end: 07 November 2021 00:00
Orbit: 743 x 748 km, 108.0° (Epoch: 27 October)

Date Brightness Start Highest point End Pass type
(mag) Time Alt. Az. Time Alt. Az. Time Alt. Az.
28 Oct 4.8 19:55:50 13° N 19:55:50 13° N 19:56:48 10° N visible
29 Oct 4.8 19:12:43 10° NNE 19:12:43 10° NNE 19:13:11 10° NNE visible
29 Oct 5.3 20:52:29 11° NNW 20:52:29 11° NNW 20:52:45 10° NNW visible
30 Oct 5.0 20:09:21 12° N 20:09:21 12° N 20:09:55 10° N visible
31 Oct 4.9 19:26:13 10° NNE 19:26:13 10° NNE 19:26:29 10° N visible
01 Nov 5.2 20:22:51 11° N 20:22:51 11° N 20:23:02 10° N visible
